When you browse on this site, cookies collect data to enhance your experience and personalize the content and advertising you see.
Visit our Privacy Policy to learn more. By continuing to use the site, you agree to this use of cookies and data.
  • In United Kingdom
  • List of Countries
  • For 7 days
  • Water Temperature
  • Satellite Maps
  • Weather Map
  • Weather Widgets
  • user-avatar
    Login

    Hourly Weather Melbourne

    Today, 22 April, Monday

    Time Temperature Precipitation Wind Pressure Humidity
    00:00 +17°C° 0 mm 3 mps 765 mmHg 72%
    01:00 +17°C° 0 mm 2 mps 766 mmHg 69%
    02:00 +17°C° 0 mm 2 mps 766 mmHg 70%
    03:00 +16°C° 0 mm 2 mps 766 mmHg 72%
    04:00 +16°C° 0 mm 1 mps 765 mmHg 74%
    05:00 +16°C° 0 mm 1 mps 766 mmHg 75%
    06:00 +16°C° 0 mm 2 mps 766 mmHg 76%
    07:00 +16°C° 0 mm 2 mps 766 mmHg 76%
    08:00 +16°C° 0 mm 2 mps 766 mmHg 74%
    09:00 +16°C° 0 mm 2 mps 767 mmHg 72%
    10:00 +17°C° 0 mm 2 mps 767 mmHg 67%
    11:00 +18°C° 0 mm 2 mps 767 mmHg 65%
    12:00 +18°C° 0 mm 3 mps 767 mmHg 63%
    13:00 +18°C° 0 mm 3 mps 767 mmHg 61%
    14:00 +18°C° 0 mm 3 mps 767 mmHg 60%
    15:00 +18°C° 0 mm 3 mps 767 mmHg 60%
    16:00 +18°C° 0 mm 3 mps 767 mmHg 59%
    17:00 +18°C° 0 mm 3 mps 768 mmHg 62%
    18:00 +17°C° 0 mm 3 mps 768 mmHg 64%
    19:00 +16°C° 0 mm 3 mps 768 mmHg 67%
    20:00 +16°C° 0 mm 3 mps 769 mmHg 69%
    21:00 +14°C° 0 mm 3 mps 769 mmHg 71%
    22:00 +15°C° 0 mm 2 mps 769 mmHg 73%
    23:00 +14°C° 0 mm 2 mps 769 mmHg 75%

    Tomorrow, 23 April, Tuesday

    Time Temperature Precipitation Wind Pressure Humidity
    00:00 +14°C° 0 mm 2 mps 769 mmHg 76%
    01:00 +14°C° 0 mm 2 mps 769 mmHg 78%
    02:00 +14°C° 0 mm 2 mps 769 mmHg 79%
    03:00 +13°C° 0 mm 2 mps 769 mmHg 80%
    04:00 +13°C° 0 mm 2 mps 769 mmHg 81%
    05:00 +13°C° 0 mm 1 mps 769 mmHg 82%
    06:00 +13°C° 0 mm 1 mps 769 mmHg 83%
    07:00 +13°C° 0 mm 1 mps 769 mmHg 84%
    08:00 +14°C° 0 mm 1 mps 769 mmHg 79%
    09:00 +16°C° 0 mm 1 mps 770 mmHg 73%
    10:00 +18°C° 0 mm 1 mps 770 mmHg 67%
    11:00 +18°C° 0 mm 2 mps 769 mmHg 63%
    12:00 +20°C° 0 mm 2 mps 769 mmHg 60%
    13:00 +21°C° 0 mm 2 mps 768 mmHg 56%
    14:00 +21°C° 0 mm 3 mps 768 mmHg 57%
    15:00 +20°C° 0 mm 3 mps 768 mmHg 59%
    16:00 +20°C° 0 mm 4 mps 767 mmHg 60%
    17:00 +19°C° 0 mm 3 mps 768 mmHg 66%
    18:00 +17°C° 0 mm 3 mps 768 mmHg 71%
    19:00 +16°C° 0 mm 3 mps 769 mmHg 77%
    20:00 +16°C° 0 mm 2 mps 769 mmHg 79%
    21:00 +15°C° 0 mm 2 mps 769 mmHg 81%
    22:00 +15°C° 0 mm 2 mps 769 mmHg 83%
    23:00 +14°C° 0 mm 1 mps 769 mmHg 85%

    Day after tomorrow, 24 April, Wednesday

    Time Temperature Precipitation Wind Pressure Humidity
    00:00 +14°C° 0 mm 1 mps 768 mmHg 86%
    01:00 +14°C° 0 mm 1 mps 768 mmHg 87%
    02:00 +13°C° 0 mm 1 mps 768 mmHg 88%
    03:00 +13°C° 0 mm 1 mps 767 mmHg 88%
    04:00 +12°C° 0 mm 0 mps 767 mmHg 89%
    05:00 +12°C° 0 mm 0 mps 767 mmHg 88%
    06:00 +13°C° 0 mm 0 mps 767 mmHg 87%
    07:00 +13°C° 0 mm 0 mps 767 mmHg 87%
    08:00 +14°C° 0 mm 0 mps 767 mmHg 81%
    09:00 +16°C° 0 mm 0 mps 767 mmHg 76%
    10:00 +19°C° 0 mm 1 mps 767 mmHg 70%
    11:00 +21°C° 0 mm 1 mps 766 mmHg 65%
    12:00 +21°C° 0 mm 2 mps 766 mmHg 60%
    13:00 +24°C° 0 mm 2 mps 765 mmHg 55%
    14:00 +23°C° 0 mm 2 mps 765 mmHg 54%
    15:00 +22°C° 0 mm 3 mps 765 mmHg 52%
    16:00 +22°C° 0 mm 3 mps 764 mmHg 50%
    17:00 +20°C° 0 mm 2 mps 765 mmHg 54%
    18:00 +19°C° 0 mm 2 mps 765 mmHg 57%
    19:00 +18°C° 0 mm 1 mps 766 mmHg 60%
    20:00 +16°C° 0 mm 1 mps 766 mmHg 63%
    21:00 +16°C° 0 mm 1 mps 766 mmHg 66%
    22:00 +15°C° 0 mm 1 mps 766 mmHg 70%
    23:00 +15°C° 0 mm 1 mps 766 mmHg 73%

    25 April, Thursday

    Time Temperature Precipitation Wind Pressure Humidity
    00:00 +14°C° 0 mm 2 mps 766 mmHg 76%
    01:00 +14°C° 0 mm 2 mps 766 mmHg 79%
    02:00 +13°C° 0 mm 2 mps 766 mmHg 81%
    03:00 +13°C° 0 mm 2 mps 765 mmHg 83%
    04:00 +13°C° 0 mm 2 mps 765 mmHg 85%
    05:00 +13°C° 0 mm 2 mps 765 mmHg 85%
    06:00 +12°C° 0 mm 2 mps 765 mmHg 86%
    07:00 +12°C° 0 mm 2 mps 766 mmHg 86%
    08:00 +13°C° 0 mm 3 mps 766 mmHg 80%
    09:00 +14°C° 0 mm 3 mps 766 mmHg 74%
    10:00 +17°C° 0 mm 3 mps 766 mmHg 67%
    11:00 +18°C° 0 mm 3 mps 765 mmHg 62%
    12:00 +19°C° 0 mm 3 mps 765 mmHg 58%
    13:00 +19°C° 0 mm 3 mps 764 mmHg 53%
    14:00 +20°C° 0 mm 3 mps 763 mmHg 50%
    15:00 +20°C° 0 mm 3 mps 763 mmHg 47%
    16:00 +21°C° 0 mm 3 mps 762 mmHg 44%
    17:00 +19°C° 0 mm 3 mps 762 mmHg 50%
    18:00 +18°C° 0 mm 2 mps 762 mmHg 55%
    19:00 +18°C° 0 mm 1 mps 762 mmHg 61%
    20:00 +16°C° 0 mm 2 mps 762 mmHg 62%
    21:00 +16°C° 0 mm 3 mps 762 mmHg 63%
    22:00 +15°C° 0 mm 4 mps 763 mmHg 65%
    23:00 +14°C° 0 mm 4 mps 762 mmHg 67%

    26 April, Friday

    Time Temperature Precipitation Wind Pressure Humidity
    00:00 +14°C° 0 mm 4 mps 762 mmHg 69%
    01:00 +13°C° 0 mm 5 mps 761 mmHg 71%
    02:00 +13°C° 0 mm 5 mps 761 mmHg 70%
    03:00 +13°C° 0 mm 5 mps 760 mmHg 70%
    04:00 +13°C° 0 mm 5 mps 760 mmHg 70%
    05:00 +13°C° 0.2 mm 6 mps 761 mmHg 69%
    06:00 +12°C° 0.2 mm 7 mps 761 mmHg 69%
    07:00 +12°C° 0.2 mm 8 mps 762 mmHg 69%
    08:00 +12°C° 0.2 mm 8 mps 762 mmHg 64%
    09:00 +12°C° 0.2 mm 8 mps 763 mmHg 59%
    10:00 +11°C° 0.2 mm 7 mps 764 mmHg 54%
    11:00 +12°C° 0.1 mm 7 mps 764 mmHg 50%
    12:00 +12°C° 0.1 mm 7 mps 764 mmHg 47%
    13:00 +12°C° 0.1 mm 7 mps 764 mmHg 43%
    14:00 +12°C° 0 mm 7 mps 764 mmHg 42%
    15:00 +12°C° 0 mm 7 mps 764 mmHg 42%
    16:00 +12°C° 0 mm 7 mps 764 mmHg 41%
    17:00 +11°C° 0 mm 6 mps 765 mmHg 45%
    18:00 +11°C° 0 mm 6 mps 766 mmHg 49%
    19:00 +10°C° 0 mm 5 mps 767 mmHg 53%
    20:00 +10°C° 0 mm 5 mps 767 mmHg 55%
    21:00 +9°C° 0 mm 5 mps 767 mmHg 56%
    22:00 +9°C° 0 mm 5 mps 768 mmHg 58%
    23:00 +9°C° 0 mm 5 mps 768 mmHg 61%

    27 April, Saturday

    Time Temperature Precipitation Wind Pressure Humidity
    00:00 +8°C° 0 mm 4 mps 767 mmHg 64%
    01:00 +8°C° 0 mm 4 mps 767 mmHg 66%
    02:00 +8°C° 0 mm 4 mps 767 mmHg 68%
    03:00 +8°C° 0 mm 4 mps 767 mmHg 70%
    04:00 +7°C° 0 mm 4 mps 767 mmHg 72%
    05:00 +7°C° 0 mm 4 mps 767 mmHg 73%
    06:00 +7°C° 0 mm 4 mps 768 mmHg 74%
    07:00 +7°C° 0 mm 4 mps 768 mmHg 75%
    08:00 +10°C° 0 mm 4 mps 768 mmHg 70%
    09:00 +10°C° 0 mm 5 mps 768 mmHg 66%
    10:00 +13°C° 0 mm 5 mps 768 mmHg 61%
    11:00 +14°C° 0 mm 5 mps 767 mmHg 58%
    12:00 +15°C° 0 mm 6 mps 767 mmHg 55%
    13:00 +16°C° 0 mm 6 mps 766 mmHg 52%
    14:00 +16°C° 0 mm 6 mps 766 mmHg 52%
    15:00 +16°C° 0 mm 6 mps 766 mmHg 52%
    16:00 +16°C° 0 mm 6 mps 765 mmHg 52%
    17:00 +15°C° 0 mm 5 mps 766 mmHg 57%
    18:00 +14°C° 0 mm 5 mps 766 mmHg 61%
    19:00 +14°C° 0 mm 5 mps 766 mmHg 66%
    20:00 +13°C° 0 mm 4 mps 767 mmHg 68%
    21:00 +13°C° 0 mm 4 mps 767 mmHg 71%
    22:00 +12°C° 0 mm 4 mps 767 mmHg 74%
    23:00 +12°C° 0.1 mm 4 mps 767 mmHg 75%
    Show more